www.pogodaiklimat.ru

Погода и климат >> Архив погоды >> Бразилия >> Токантинс >> Императрис


ПОГОДА в Императрисе

  • Прогноз погоды в Императрисе
  • Монитор погоды в Императрисе

АРХИВ ПОГОДЫ в Императрисе

Время (UTC), дата Ветер
(напр.,м/с)
 
Видим.   Явления Облачность Т
(С)
Тd
(С)
f
(%)
Тe
(С)
Тes
(С)
Комфортность P
(гПа)
Po
(гПа)
Тmin
(С)
Tmax
(С)
R
(мм)
R24
(мм)
S
(см)
19 15.08 В 2
{5}
н/о н/о +35.1 +14.8 30 +37 +37 очень
душно
1011.1 998.0
20 15.08 В 2
{4}
н/о н/о +34.5 +14.1 29 +35 +35 очень
жарко
1011.1 997.9
21 15.08 В 1
{4}
н/о н/о +33.2 +13.8 31 +34 +34 очень
жарко
1011.4 998.2
22 15.08 В 1
{2}
н/о н/о +30.9 +13.9 36 +33 +33 душно 1012.0 998.7
23 15.08 штиль 0
{1}
н/о н/о +29.4 +14.8 41 +32 +32 душно 1012.6 999.2
00 16.08 штиль 0
{1}
н/о н/о +27.3 +15.1 47 +30 +30 душно 1013.3 999.8
01 16.08 штиль 0
{1}
н/о н/о +25.6 +15.9 55 +29 +29 душно 1013.9 1000.3
02 16.08 штиль 0 н/о н/о +25.5 +17.0 59 +29 +29 душно 1014.1 1000.5
03 16.08 штиль 0
{1}
н/о н/о +25.7 +17.4 60 +30 +30 душно 1013.8 1000.2
04 16.08 штиль 0
{1}
н/о н/о +22.8 +15.4 63 +27 +27 душно 1013.5 999.8
05 16.08 штиль 0 н/о н/о +23.5 +16.8 66 +27 +27 душно 1012.9 999.2
06 16.08 Ю 1
{1}
н/о н/о +22.2 +16.4 70 +26 +26 душно 1013.0 999.3
07 16.08 штиль 0
{1}
н/о н/о +20.6 +15.5 73 +23 +23 комфорт 1013.2 999.4
08 16.08 штиль 0
{1}
н/о н/о +21.5 +16.9 75 +25 +25 комфорт 1013.7 999.9
09 16.08 штиль 0
{1}
н/о н/о +21.4 +17.3 77 +25 +25 комфорт 1014.2 1000.4
10 16.08 штиль 0
{1}
н/о н/о +22.3 +18.4 79 +28 +28 душно 1015.4 1001.6
11 16.08 В 1
{3}
н/о н/о +27.1 +20.8 68 +34 +34 очень
душно
1016.0 1002.4
12 16.08 В 2
{4}
н/о н/о +28.4 +18.2 54 +33 +33 очень
душно
1016.2 1002.7
13 16.08 В 2
{5}
н/о н/о +30.4 +16.5 43 +34 +34 очень
душно
1016.1 1002.7
14 16.08 ЮВ 2
{4}
н/о н/о +31.8 +14.1 34 +33 +33 жарко 1015.7 1002.4
15 16.08 В 2
{4}
н/о н/о +33.1 +13.4 30 +34 +34 очень
жарко
1014.9 1001.6
16 16.08 ЮВ 2
{5}
н/о н/о +34.4 +13.1 28 +35 +35 очень
жарко
1013.5 1000.3
17 16.08 В 1
{5}
н/о н/о +35.0 +12.7 26 +35 +35 очень
жарко
1012.5 999.3
18 16.08 В 2
{5}
н/о н/о +34.7 +11.6 25 +34 +34 очень
жарко
1011.6 998.4
19 16.08 В 2
{4}
н/о н/о +34.2 +11.3 25 +34 +34 очень
жарко
1011.2 998.0
20 16.08 В 1
{4}
н/о н/о +33.8 +11.3 25 +33 +33 жарко 1011.0 997.8
21 16.08 штиль 0
{2}
н/о н/о +32.1 +11.8 29 +32 +32 жарко 1011.5 998.2
22 16.08 В 1
{1}
н/о н/о +29.9 +12.4 34 +31 +31 жарко 1012.0 998.6
23 16.08 ЮЗ 1
{1}
н/о н/о +25.1 +12.3 45 +27 +27 жарко 1013.1 999.5
00 17.08 штиль 0
{1}
н/о н/о +24.8 +13.6 50 +27 +27 жарко 1014.0 1000.4
01 17.08 штиль 0
{1}
н/о н/о +23.6 +14.1 55 +26 +26 жарко 1014.8 1001.1
02 17.08 штиль 0
{1}
н/о н/о +22.9 +14.6 59 +27 +27 душно 1015.0 1001.3
03 17.08 штиль 0
{1}
н/о н/о +22.3 +14.6 62 +26 +26 жарко 1015.0 1001.2
04 17.08 штиль 0
{1}
н/о н/о +20.0 +13.6 67 +22 +22 комфорт 1014.6 1000.7
05 17.08 штиль 0 н/о н/о +19.8 +14.2 70 +22 +22 комфорт 1014.0 1000.1
06 17.08 штиль 0 н/о н/о +19.4 +14.1 71 +21 +21 комфорт 1013.7 999.8
07 17.08 штиль 0 н/о н/о +17.9 +13.1 73 +18 +18 1013.5 999.6
08 17.08 Ю 1
{1}
н/о н/о +16.9 +12.7 76 +18 +18 1013.8 999.8
09 17.08 штиль 0
{1}
н/о н/о +17.6 +13.8 78 +18 +18 1014.9 1000.9
10 17.08 штиль 0
{1}
н/о н/о +18.7 +14.7 78 +20 +20 1015.6 1001.7
11 17.08 Ю 1
{2}
н/о н/о +21.8 +17.0 74 +26 +26 душно 1016.1 1002.3
12 17.08 штиль 0
{1}
н/о н/о +27.3 +18.9 60 +32 +32 очень
душно
1015.9 1002.4
13 17.08 В 3
{5}
н/о н/о +31.3 +17.7 44 +35 +35 очень
душно
1015.6 1002.2
14 17.08 В 2
{6}
н/о н/о +32.1 +15.2 36 +34 +34 душно 1015.2 1001.9
15 17.08 В 2
{6}
н/о н/о +33.0 +13.8 31 +34 +34 очень
жарко
1014.4 1001.1
16 17.08 В 2
{4}
н/о н/о +33.0 +12.4 29 +33 +33 жарко 1013.3 1000.0
17 17.08 ЮВ 1
{4}
н/о н/о +33.8 +12.3 27 +34 +34 очень
жарко
1012.1 998.9
18 17.08 С 2
{4}
н/о н/о +35.2 +13.3 27 +36 +36 очень
жарко
1011.1 998.0
19 17.08 СВ 1
{3}
н/о н/о +33.5 +12.5 28 +34 +34 очень
жарко
1010.9 997.7
20 17.08 СВ 1
{4}
н/о н/о +31.9 +12.4 30 +32 +32 жарко 1011.2 997.9
21 17.08 СВ 1
{4}
н/о н/о +30.8 +12.6 33 +32 +32 жарко 1011.4 998.1
22 17.08 штиль 0
{2}
н/о н/о +28.7 +13.1 38 +30 +30 жарко 1011.9 998.5
23 17.08 штиль 0
{1}
н/о н/о +25.9 +13.4 46 +28 +28 жарко 1012.5 998.9
00 18.08 штиль 0 н/о н/о +25.1 +13.8 49 +27 +27 жарко 1013.2 999.6
01 18.08 штиль 0 н/о н/о +23.6 +14.3 56 +26 +26 жарко 1013.7 1000.0
02 18.08 штиль 0 н/о н/о +23.3 +15.1 60 +27 +27 душно 1014.1 1000.4
03 18.08 штиль 0 н/о н/о +22.0 +14.8 64 +25 +25 комфорт 1014.0 1000.2
04 18.08 штиль 0
{1}
н/о н/о +21.1 +14.9 68 +24 +24 комфорт 1013.3 999.5
05 18.08 штиль 0
{1}
н/о н/о +20.5 +14.7 69 +23 +23 комфорт 1013.1 999.3
06 18.08 штиль 0
{1}
н/о н/о +20.0 +15.0 73 +22 +22 комфорт 1012.8 999.0
07 18.08 штиль 0 н/о н/о +19.9 +15.2 74 +22 +22 комфорт 1012.9 999.1
08 18.08 штиль 0 н/о н/о +19.3 +14.8 75 +21 +21 комфорт 1013.3 999.4
09 18.08 штиль 0 н/о н/о +19.5 +15.4 77 +21 +21 комфорт 1014.1 1000.2
10 18.08 штиль 0
{1}
н/о н/о +20.2 +16.2 78 +23 +23 комфорт 1014.8 1000.9
11 18.08 Ю 1
{2}
н/о н/о +23.4 +18.5 74 +30 +30 очень
душно
1015.3 1001.6
12 18.08 СВ 1
{3}
н/о н/о +29.1 +21.2 62 +37 +37 очень
душно
1015.6 1002.1
13 18.08 В 2
{4}
н/о н/о +31.4 +19.8 50 +37 +37 очень
душно
1015.5 1002.1
14 18.08 В 2
{5}
н/о н/о +32.6 +17.5 41 +37 +37 очень
душно
1014.9 1001.6
15 18.08 В 2
{5}
н/о н/о +33.6 +15.8 34 +36 +36 очень
душно
1014.0 1000.8
16 18.08 В 2
{5}
н/о н/о +34.7 +14.8 30 +36 +36 душно 1012.9 999.7
17 18.08 ЮВ 2
{5}
н/о н/о +35.8 +14.8 29 +37 +37 душно 1011.7 998.6
18 18.08 В 2
{4}
н/о н/о +36.2 +13.7 26 +37 +37 очень
жарко
1011.1 998.0
19 18.08 В 2
{4}
н/о н/о +36.2 +12.9 25 +36 +36 очень
жарко
1010.8 997.7
20 18.08 ЮВ 1
{4}
н/о н/о +35.4 +11.6 24 +35 +35 очень
жарко
1010.8 997.7
21 18.08 штиль 0
{3}
н/о н/о +33.4 +11.7 27 +33 +33 жарко 1011.2 998.0
22 18.08 штиль 0
{1}
н/о н/о +30.6 +12.0 32 +31 +31 жарко 1011.6 998.3
23 18.08 штиль 0
{1}
н/о н/о +27.9 +13.7 42 +30 +30 жарко 1012.4 998.9
00 19.08 штиль 0
{1}
н/о н/о +25.7 +14.0 48 +28 +28 жарко 1013.3 999.7
01 19.08 штиль 0
{1}
н/о н/о +24.9 +15.3 55 +28 +28 жарко 1013.6 1000.0
02 19.08 штиль 0
{1}
н/о н/о +22.6 +14.7 61 +26 +26 жарко 1013.7 1000.0
03 19.08 штиль 0 н/о н/о +21.9 +14.9 64 +25 +25 комфорт 1013.8 1000.0
04 19.08 штиль 0 н/о н/о +21.4 +15.1 67 +25 +25 комфорт 1013.5 999.7
05 19.08 штиль 0
{1}
н/о н/о +21.2 +15.5 70 +24 +24 комфорт 1013.3 999.5
06 19.08 штиль 0 н/о н/о +20.4 +15.3 73 +23 +23 комфорт 1013.2 999.4
07 19.08 штиль 0 н/о н/о +19.6 +14.9 74 +21 +21 комфорт 1013.3 999.4
08 19.08 штиль 0
{1}
н/о н/о +20.0 +15.7 76 +22 +22 комфорт 1013.7 999.9
09 19.08 штиль 0
{1}
н/о н/о +19.0 +15.1 78 +20 +20 1014.4 1000.5
10 19.08 штиль 0
{1}
н/о н/о +20.9 +16.9 78 +24 +24 комфорт 1014.8 1001.0
11 19.08 штиль 0
{1}
н/о н/о +24.2 +19.1 73 +29 +29 душно 1015.3 1001.6
12 19.08 штиль 0
{1}
н/о н/о +28.6 +20.8 63 +36 +36 очень
душно
1015.3 1001.8
13 19.08 СВ 1
{2}
н/о н/о +31.2 +19.9 51 +37 +37 очень
душно
1015.6 1002.2
14 19.08 СВ 1
{3}
н/о н/о +32.8 +18.3 42 +37 +37 очень
душно
1014.7 1001.4
15 19.08 В 2
{4}
н/о н/о +34.3 +16.2 34 +37 +37 очень
душно
1013.8 1000.6
16 19.08 ЮВ 1
{4}
н/о н/о +34.7 +14.6 30 +36 +36 душно 1012.6 999.4
17 19.08 В 1
{3}
н/о н/о +36.4 +14.9 28 +38 +38 очень
душно
1011.4 998.3
18 19.08 штиль 0
{3}
н/о н/о +35.7 +12.9 25 +36 +36 очень
жарко
1010.6 997.5
19 19.08 С 1
{2}
н/о н/о +36.4 +13.1 25 +37 +37 очень
жарко
1010.3 997.2
20 19.08 В 2
{3}
н/о н/о +35.5 +11.5 23 +35 +35 очень
жарко
1010.2 997.1
21 19.08 штиль 0
{2}
н/о н/о +33.1 +11.6 27 +33 +33 жарко 1010.3 997.1
22 19.08 штиль 0 н/о н/о +30.5 +12.6 33 +31 +31 жарко 1011.1 997.8
23 19.08 штиль 0
{1}
н/о н/о +28.5 +13.1 39 +30 +30 жарко 1011.6 998.2
00 20.08 штиль 0
{1}
н/о н/о +26.9 +14.8 47 +29 +29 жарко 1012.6 999.1
01 20.08 штиль 0
{1}
н/о н/о +25.6 +15.2 53 +29 +29 душно 1013.3 999.7
02 20.08 штиль 0 н/о н/о +24.8 +15.9 58 +28 +28 жарко 1013.6 1000.0
03 20.08 штиль 0 н/о н/о +22.9 +15.1 61 +27 +27 душно 1013.8 1000.1
04 20.08 штиль 0 н/о н/о +22.5 +15.9 66 +27 +27 душно 1013.5 999.8
05 20.08 штиль 0 н/о н/о +21.9 +16.2 70 +26 +26 душно 1013.2 999.4
06 20.08 штиль 0 н/о н/о +22.1 +16.7 71 +26 +26 душно 1013.1 999.4
07 20.08 штиль 0
{1}
н/о н/о +21.6 +16.6 73 +25 +25 комфорт 1013.3 999.5
08 20.08 штиль 0
{1}
н/о н/о +19.9 +15.4 75 +22 +22 комфорт 1013.9 1000.0
09 20.08 штиль 0
{1}
н/о н/о +20.2 +16.0 77 +23 +23 комфорт 1014.1 1000.3
10 20.08 штиль 0
{1}
н/о н/о +22.0 +17.8 77 +27 +27 душно 1014.6 1000.8
11 20.08 штиль 0
{1}
н/о н/о +25.3 +20.4 74 +31 +31 очень
душно
1015.0 1001.4
12 20.08 В 1
{2}
н/о н/о +28.0 +21.6 68 +36 +36 очень
душно
1015.6 1002.1
13 20.08 В 3
{5}
н/о н/о +26.8 +20.1 67 +33 +33 очень
душно
1016.5 1002.9
14 20.08 СВ 1
{5}
н/о н/о +27.9 +21.1 67 +35 +35 очень
душно
1016.3 1002.8
15 20.08 С 1
{3}
н/о н/о +30.5 +22.3 62 +40 +40 очень
душно
1015.3 1001.9
16 20.08 С 1
{3}
н/о н/о +31.7 +21.5 55 +40 +40 очень
душно
1014.3 1001.0
17 20.08 В 1
{3}
н/о н/о +33.6 +21.3 49 +41 +41 опасность
перегрева
1013.2 1000.0
18 20.08 С 1
{3}
н/о н/о +34.4 +19.7 42 +40 +40 очень
душно
1012.1 998.9
19 20.08 С 1
{3}
н/о н/о +34.7 +18.4 38 +39 +39 очень
душно
1011.6 998.4
20 20.08 С 1
{2}
н/о н/о +34.6 +17.0 35 +38 +38 очень
душно
1011.6 998.4
21 20.08 СВ 1
{3}
н/о н/о +31.2 +16.1 40 +34 +34 душно 1012.3 999.0
01 21.08 штиль 0
{1}
н/о н/о +25.7 +17.6 61 +30 +30 душно 1014.6 1001.0
02 21.08 штиль 0
{1}
н/о н/о +25.1 +17.8 64 +29 +29 душно 1014.6 1001.0
03 21.08 штиль 0 н/о н/о +23.9 +17.7 68 +28 +28 душно 1014.3 1000.6
04 21.08 штиль 0
{1}
н/о н/о +23.8 +18.0 70 +28 +28 душно 1013.8 1000.1
05 21.08 штиль 0
{1}
н/о н/о +22.5 +17.4 73 +27 +27 душно 1013.6 999.9
06 21.08 штиль 0 н/о н/о +22.9 +18.3 75 +29 +29 очень
душно
1013.4 999.7
07 21.08 штиль 0 н/о н/о +21.7 +17.3 76 +26 +26 душно 1013.6 999.8
08 21.08 штиль 0 н/о н/о +21.8 +17.8 78 +26 +26 душно 1014.3 1000.5
09 21.08 штиль 0 н/о н/о +21.9 +18.1 79 +27 +27 душно 1014.7 1000.9
10 21.08 штиль 0
{1}
н/о н/о +22.5 +18.8 80 +28 +28 душно 1015.5 1001.7
11 21.08 штиль 0
{1}
н/о н/о +24.4 +20.4 78 +30 +30 очень
душно
1016.2 1002.5
12 21.08 СВ 1
{3}
н/о н/о +25.4 +21.1 77 +32 +32 очень
душно
1016.9 1003.3
13 21.08 СВ 1
{4}
н/о н/о +26.2 +21.5 75 +33 +33 очень
душно
1017.5 1003.9
14 21.08 СВ 1
{3}
н/о н/о +27.1 +21.9 73 +35 +35 очень
душно
1017.2 1003.6
15 21.08 СВ 1
{3}
н/о н/о +29.0 +22.3 67 +38 +38 очень
душно
1016.5 1003.0
16 21.08 СЗ 1
{3}
н/о н/о +31.4 +22.2 58 +40 +40 очень
душно
1015.0 1001.7
17 21.08 С 1
{3}
н/о н/о +33.1 +21.8 52 +42 +42 опасность
перегрева
1013.5 1000.2
18 21.08
{3}
н/о н/о +34.2 +21.1 46 1012.3 999.1
19 21.08 СВ 1
{3}
н/о н/о +34.6 +19.0 40 +40 +40 очень
душно
1011.7 998.5
20 21.08 штиль 0
{2}
н/о н/о +34.0 +17.8 38 +38 +38 очень
душно
1011.7 998.5
21 21.08 штиль 0
{1}
н/о н/о +30.9 +16.7 43 +34 +34 душно 1012.0 998.7
22 21.08 штиль 0
{1}
н/о н/о +29.1 +18.0 51 +34 +34 очень
душно
1012.6 999.2
23 21.08 штиль 0
{1}
н/о н/о +27.9 +17.5 53 +32 +32 душно 1013.2 999.7
00 22.08 штиль 0
{1}
н/о н/о +26.5 +17.7 58 +31 +31 душно 1013.9 1000.3
01 22.08 штиль 0
{1}
н/о н/о +26.5 +18.6 62 +31 +31 душно 1014.7 1001.1
02 22.08 СЗ 1
{2}
н/о н/о +27.1 +19.7 64 +33 +33 очень
душно
1014.6 1001.1
03 22.08 СЗ 1
{2}
н/о н/о +26.2 +19.8 68 +32 +32 очень
душно
1014.4 1000.8
04 22.08 СЗ 1
{2}
н/о н/о +25.6 +19.9 71 +31 +31 очень
душно
1014.0 1000.4
05 22.08 штиль 0
{2}
н/о н/о +25.0 +19.8 73 +31 +31 очень
душно
1013.3 999.7
06 22.08 штиль 0
{1}
н/о н/о +24.0 +19.2 75 +29 +29 душно 1013.2 999.5
07 22.08 штиль 0
{1}
н/о н/о +23.5 +19.2 77 +28 +28 душно 1013.5 999.8
08 22.08 штиль 0
{1}
н/о н/о +22.9 +19.1 79 +29 +29 очень
душно
1013.7 1000.0
09 22.08 штиль 0
{1}
н/о н/о +22.4 +18.8 80 +28 +28 душно 1014.4 1000.7
10 22.08 штиль 0
{1}
н/о н/о +23.9 +20.2 80 +30 +30 очень
душно
1014.9 1001.2
11 22.08 С 1
{2}
н/о н/о +25.3 +21.2 78 +32 +32 очень
душно
1015.8 1002.2
12 22.08
{3}
н/о н/о +27.6 +22.1 72 1016.1 1002.6
13 22.08 СВ 1
{2}
н/о н/о +29.5 +21.5 62 +37 +37 очень
душно
1016.1 1002.7
14 22.08 СВ 1
{3}
н/о н/о +31.2 +20.4 53 +38 +38 очень
душно
1015.6 1002.2
15 22.08 В 1
{3}
н/о н/о +31.9 +19.1 47 +37 +37 очень
душно
1014.9 1001.6
16 22.08 В 1
{3}
н/о н/о +31.8 +18.1 44 +36 +36 очень
душно
1014.0 1000.7
17 22.08 В 2
{4}
н/о н/о +34.0 +18.9 41 +39 +39 очень
душно
1012.9 999.7
19 22.08 СВ 1
{4}
н/о н/о +34.3 +17.4 37 +38 +38 очень
душно
1012.1 998.9

 

Местоположение метеостанции Императрис (Токантинс, Бразилия): широта -5.55 долгота -47.67 высота над уровнем моря 128 м.

В архиве по умолчанию представлена погода в Императрисе за последнюю неделю. Архивные данные за месяц целиком и за предыдущие месяцы, начиная с января 2011 года, Вы можете получить, выбрав интересующий диапазон дат из раскрывающегося списка и нажав кнопку "Ввод!".


*Определитесь, кто Вы:
робот инопланетянин человек

Внимание! Время в таблицах - всемирное. Для получения местного времени необходимо прибавить поправку, которая равна -3 ч.

Смотрите также архив погоды в соседних городах и на ближайших метеорологических станциях:

Погода в Арагуатинсе (Токантинс, Бразилия) (51 км)
Погода в Рондон-ду-Паре (Мараньян, Бразилия) (96 км)
Погода в Эстрейту (Мараньян, Бразилия) (125 км)
Погода в Марабе (Пара, Бразилия) (165 км)
Погода в Гражау (Мараньян, Бразилия) (169 км)
Погода в Буритикупу (Мараньян, Бразилия) (192 км)
Погода в Марабе (Пара, Бразилия) (194 км)
Погода в Каролине (Мараньян, Бразилия) (199 км)
Погода в Каролине (Мараньян, Бразилия) (199 км)
Погода в Арагуаине (Токантинс, Бразилия) (200 км)

Пояснения к столбцам:

Ветер - указаны скорость ветра в м/с - средняя за 10 мин, порывы в срок и между сроками (в фигурных скобках) и направление, откуда дует ветер: С - северный, СВ - северо-восточный, В - восточный, ЮВ - юго-восточный, Ю - южный, ЮЗ - юго-западный, З - западный, СЗ - северо-западный.
Видимость - горизонтальная дальность видимости в метрах или километрах. При видимости от 1 до 10 км при отсутствии осадков обычно наблюдается дымка, при ухудшении видимости до 1 км и менее - туман. В сухую погоду видимость может ухудшаться дымом, пылью или мглою.
Явления - указаны атмосферные явления, наблюдавшиеся в срок или в последний час перед сроком; фигурными скобками обозначены явления, наблюдавшиеся между сроками (за 1-3 часа до срока); квадратными скобками обозначены град или гололедные отложения с указанием их диаметра в мм.
Облачность - указаны через наклонную черту общая и нижняя облачность в баллах и высота нижней границы облаков в метрах; квадратными скобками обозначены формы облаков: Ci - перистые, Cs - перисто-слоистые, Cc - перисто-кучевые, Ac - высококучевые, As - высокослоистые, Sc - слоисто-кучевые, Ns - слоисто-дождевые, Cu - кучевые, Cb - кучево-дождевые. Подробнее классификацию облаков см. в Атласе облаков (PDF).
T - Температура воздуха - температура, измеренная на высоте 2 м над землей.
Td - Температура точки росы - температура, при понижении до которой содержащийся в воздухе водяной пар достигнет насыщения.
f - Относительная влажность воздуха - влажноcть воздуха, измеренная на высоте 2 м над землей.
Te - Эффективная температура - температура, которую ощущает одетый по сезону человек в тени. Характеристика душности погоды. При расчете учитывается влияние влажности воздуха и скорости ветра на теплоощущения человека.
Tes - Эффективная температура на солнце - температура, которую ощущает человек, с поправкой на солнечный нагрев. Характеристика знойности погоды. Зависит от высоты солнца над горизонтом, облачности и скорости ветра. Ночью, в пасмурную погоду, а также при ветре 12 м/с и более поправка равна нулю.
P - Атмосферное давление - приведенное к уровню моря атмосферное давление.
Po - Атмосферное давление - измеренное на уровне метеостанции атмосферное давление.
Tmin - Минимальная температура - минимум температуры воздуха на высоте 2 м над землей.
Tmax - Максимальная температура - максимум температуры воздуха на высоте 2 м над землей.
R - Количество осадков - Количество выпавших осадков за период времени, мм. При наведении курсора мыши на число - период времени, за который выпало указанное количество осадков.
R24 - Количество осадков - Количество выпавших осадков за 24 часа, мм.
S - Снежный покров - Высота снежного покрова, см. При наведении курсора мыши на число - состояние снежного покрова и степень покрытия местности в баллах.